sat.trackr.live / text

‹ back to catalog

STARLINK-34637

NORAD 64776 · 2025-147X

PAYLOAD ACTIVE UNKNOWN

§ Identity

Operator
Country
US
Launch date
2025-07-08
Launch site
AFETR
Launch vehicle
Mass (kg)
RCS (m²)

Purposes: comms

External: N2YO · Heavens-Above · Gunter

§ Orbital elements

Epoch: 2026-09-18T23:57:02.056608Z

Period
93.85 min
Inclination
53.1580°
Eccentricity
0.0001356
Mean motion
15.34398422 rev/d
Perigee alt
461.8 km
Apogee alt
463.6 km
Semi-major
6,840.8 km
B*
4.9582e-4
RAAN
60.9141°
Arg perigee
47.1912°
Mean anomaly
312.9204°
Rev number
6,833

§ Raw data

STARLINK-346371 64776U 25147X   26261.99794047  .00016412  00000+0  49582-3 0  99992 64776  53.1580  60.9141 0001356  47.1912 312.9204 15.34398422 68336

JSON: /api/v1/satellites/64776 · /tle

For live sub-satellite position, see the globe view (requires WebGL).

§ Visibility from observer

Set your observer location to see the next 7 days of passes ≥ 10°. The values pass through the URL so the page stays shareable.

No JS? Fill the form by hand. The geolocation button needs JavaScript.